sat.trackr.live / text

‹ back to catalog

BB 2

NORAD 56170 · 2023-050J

PAYLOAD ACTIVE UNKNOWN

§ Identity

Operator
Country
US
Launch date
2023-04-02
Launch site
AFWTR
Launch vehicle
Mass (kg)
RCS (m²)

External: N2YO · Heavens-Above · Gunter

§ Orbital elements

Epoch: 2026-09-21T13:17:25.227744Z

Period
99.57 min
Inclination
81.0046°
Eccentricity
0.0007784
Mean motion
14.46168033 rev/d
Perigee alt
732.7 km
Apogee alt
743.7 km
Semi-major
7,116.3 km
B*
1.0221e-4
RAAN
338.4468°
Arg perigee
15.1713°
Mean anomaly
344.9709°
Rev number
17,547

§ Raw data

BB 21 56170U 23050J   26264.55376421  .00000378  00000+0  10221-3 0  99982 56170  81.0046 338.4468 0007784  15.1713 344.9709 14.46168033175476

JSON: /api/v1/satellites/56170 · /tle

For live sub-satellite position, see the globe view (requires WebGL).

§ Visibility from observer

Set your observer location to see the next 7 days of passes ≥ 10°. The values pass through the URL so the page stays shareable.

No JS? Fill the form by hand. The geolocation button needs JavaScript.